Flag for Netherlands Weather past 2 weeks in Enschede, Netherlands

Now
61 °F

Fog.


Feels Like: 61 °F
Forecast: 54 / 62 °F
Wind: 1 mph from Southeast

Location: Deelen

Current Time: Sep 20, 2014 at 10:34:23 AM

Latest Report: Sep 20, 2014 at 9:55 AM


Visibility: 0 mi

Pressure: 29.92 "Hg

Humidity: 100%

Dew point: 61 °F

Location of EnschedeLocation

Historic Weather in Enschede — Graph

°F

Enschede temperature yesterday

Maximum temperature yesterday: 72 °F (at 1:55 PM)
Minimum temperature yesterday: 59 °F (at 5:55 AM)
Average temperature yesterday: 65 °F

Past Weeks' High & Low Weather Summary

 TemperatureHumidityPressure
High77 °F (Sep 17, 2:55 PM)100% (Sep 5, 9:55 PM)30.27 "Hg (Sep 5, 9:55 PM)
Low45 °F (Sep 12, 6:25 AM)43% (Sep 8, 4:55 PM)29.83 "Hg (Sep 18, 5:25 AM)
Average62 °F84%30.03 "Hg
* Reported Sep 5 9:25 AM — Sep 20 9:25 AM, Enschede, Weather by CustomWeather, © 2014

Note: Actual official high and low records may vary slightly from our data, if they occured in-between our weather recording intervals... More about our weather records

Advertising

Enschede weather history for previous 24 hours

 ConditionsComfort  
Time TempWeatherWind HumidityBarometerVisibility
9:25 AM
Sep 20
61 °FFog.1 mph100%29.92 "Hg0 mi
8:55 AM61 °FFog.1 mph100%29.92 "Hg0 mi
8:25 AM59 °FFog.1 mph100%29.92 "Hg0 mi
7:55 AM59 °FFog.2 mph100%29.92 "Hg0 mi
7:25 AM57 °FFog.No wind100%29.92 "Hg0 mi
6:55 AM57 °FFog.1 mph100%29.92 "Hg0 mi
6:25 AM57 °FFog.1 mph100%29.92 "Hg0 mi
5:55 AM57 °FFog.1 mph100%29.92 "Hg0 mi
5:25 AM55 °FFog.1 mph100%29.92 "Hg0 mi
4:55 AM55 °FFog.1 mph94%29.92 "Hg0 mi
4:25 AM55 °FFog.1 mph94%29.92 "Hg0 mi
3:55 AM54 °FFog.1 mph100%29.92 "Hg0 mi
3:25 AM55 °FFog.1 mph94%29.92 "Hg0 mi
2:55 AM55 °FFog.2 mph100%29.92 "Hg1 mi
2:25 AM55 °FFog.2 mph100%29.92 "Hg2 mi
1:55 AM55 °FFog.1 mph100%29.92 "Hg1 mi
1:25 AM57 °FFog.2 mph100%29.89 "Hg4 mi
12:55 AM57 °FFog.1 mph100%29.92 "Hg2 mi
12:25 AM57 °FFog.1 mph100%29.92 "Hg2 mi
11:55 PM
Sep 19
59 °FFog.2 mph100%29.92 "Hg2 mi
11:25 PM59 °FFog.1 mph100%29.92 "Hg2 mi
10:55 PM61 °FFog.1 mph100%29.92 "Hg3 mi
10:25 PM61 °FFog.1 mph100%29.92 "Hg2 mi
9:55 PM63 °FFog.1 mph94%29.92 "Hg2 mi
9:25 PM63 °FFog.3 mph94%29.92 "Hg2 mi
8:55 PM63 °FFog.1 mph94%29.89 "Hg2 mi
8:25 PM64 °FFog.1 mph88%29.89 "Hg2 mi
7:55 PM66 °FFog.1 mph88%29.86 "Hg3 mi
7:25 PM70 °FFog.2 mph83%29.86 "Hg4 mi
6:55 PM70 °FBroken clouds.3 mph83%29.86 "Hg4 mi
6:25 PM70 °FHaze.5 mph83%29.86 "Hg4 mi
5:55 PM72 °FHaze.2 mph73%29.86 "Hg6 mi
5:25 PM72 °FHaze.2 mph73%29.86 "Hg5 mi
4:55 PM72 °FPartly sunny.5 mph78%29.86 "Hg4 mi
4:25 PM70 °FMostly cloudy.5 mph83%29.86 "Hg5 mi
4:04 PM70 °FPartly sunny.6 mph83%29.86 "Hg4 mi
3:55 PM70 °FMostly cloudy.6 mph83%29.86 "Hg4 mi
3:25 PM72 °FFog.2 mph78%29.86 "Hg5 mi
2:55 PM70 °FFog.3 mph78%29.86 "Hg4 mi
2:25 PM70 °FOvercast.3 mph83%29.86 "Hg4 mi
1:55 PM72 °FPartly sunny.1 mph73%29.86 "HgN/A
1:25 PM70 °FPassing clouds.2 mph78%29.86 "HgN/A
12:55 PM68 °FMild.3 mph83%29.86 "HgN/A
12:25 PM68 °FPartly sunny.2 mph83%29.86 "HgN/A
11:55 AM66 °FFog.2 mph88%29.86 "Hg5 mi
11:25 AM64 °FFog.1 mph88%29.86 "Hg5 mi
10:55 AM64 °FFog.2 mph94%29.86 "Hg4 mi
10:25 AM64 °FFog.3 mph94%29.86 "Hg4 mi
Weather by CustomWeather, © 2014

See weather overviewHow to use our weather pages